Regional Weather Roundup
Issued by NWS

Home | Current Version | Previous Version | Graphics & Text | Print | Product List | Glossary On
Versions: 1 2 3 4 5 6 7 8 9 10 11 12 13 14 15 16 17 18 19 20 21 22 23 24 25 26 27 28 29 30 31 32 33 34 35 36 37 38 39 40 41 42 43 44 45 46 47 48 49 50
000
ASUS43 KMPX 010410
RWRMN
WEATHER ROUNDUP FOR MINNESOTA
NATIONAL WEATHER SERVICE TWIN CITIES/CHANHASSEN MN
1000 PM CST SAT JAN 31 2015


NOTE: "FAIR" INDICATES FEW OR NO CLOUDS BELOW 12,000 FEET WITH NO
SIGNIFICANT WEATHER AND/OR OBSTRUCTIONS TO VISIBILITY. N/A MEANS
CURRENT SKY AND/OR WEATHER CONDITIONS ARE NOT AVAILABLE.

MNZ060>063-068>070-010500-
   Twin Cities Metro

CITY           SKY/WX    TMP DP  RH WIND       PRES   REMARKS
TWIN CITIES    CLOUDY    25  11  55 NE15      30.19S WCI  13
ST PAUL        CLOUDY    25  12  58 NE13      30.22R WCI  14
CRYSTAL        CLOUDY    23   8  52 NE14G21   30.20R WCI  11
BLAINE         CLOUDY    23  10  58 NE14G22   30.21S WCI  11
LAKEVILLE      CLOUDY    23  16  74 NE13      30.16F WCI  11
EDEN PRAIRIE   CLOUDY    25  11  55 NE14      30.17R WCI  13
SOUTH ST PAUL  CLOUDY    26  14  61 NE8       30.19S WCI  17
LAKE ELMO      MOCLDY    25  14  63 NE14      30.21R WCI  13
$$
MNZ001>005-007-008-013>017-022>024-027-028-010500-
   Northwest Minnesota

CITY           SKY/WX    TMP DP  RH WIND       PRES   REMARKS
BEMIDJI        MOCLDY    -5 -11  76 N9        30.36S WCI -21
HALLOCK        PTCLDY   -11 -20  64 N14       30.55S WCI -33
ROSEAU         PTCLDY    -9 -17  70 N7        30.50R WCI -24
WARROAD        MOCLDY    -9 -17  70 N7        30.49R WCI -24
THIEF RVR FALL PTCLDY    -2 -11  65 NE15      30.44S WCI -22
CROOKSTON      PTCLDY    -4 -11  71 N14       30.49R WCI -24
FOSSTON        PTCLDY    -6 -13  71 N10G17    30.40R WCI -23
DETROIT LAKES  MOCLDY     7  -2  66 NE10      30.32R WCI  -8
MOORHEAD       MOCLDY     1  -6  71 N18       30.39S WCI -19
PARK RAPIDS    MOCLDY     4  -5  66 N9        30.29R WCI -10
MAHNOMEN       FAIR       0  -8  70 NE17      30.36R WCI -21
$$
MNZ006-009>011-018-025>026-010500-
   North Central Minnesota

CITY           SKY/WX    TMP DP  RH WIND       PRES   REMARKS
BAUDETTE       PTCLDY   -10 -17  71 N7        30.45R WCI -25
FLAG ISLAND    MOCLDY    -9 -17  70 N12       30.48S WCI -29
INTL FALLS     MOCLDY    -9 -17  68 NE6       30.43R WCI -22
WASKISH        PTCLDY    -8 -13  77 N6        30.42S WCI -21
BIG FORK       PTCLDY    -4 -13  65 N5        30.38R WCI -15
LONGVILLE      MOCLDY     3  -6  66 N6        30.32S WCI  -8
GRAND RAPIDS   PTCLDY     1  -9  60 N7        30.32S WCI -11
CRANE LAKE     MOCLDY   -17 -20  83 CALM      30.44R
ORR            MOCLDY    -8 -17  65 CALM      30.35S
COOK           MOCLDY    -6 -15  65 CALM      30.38R
WALKER         FAIR       0  -7  72 N7        30.33F WCI -13
$$
MNZ012-019>021-037-010500-
   Northeast Minnesota

CITY           SKY/WX    TMP DP  RH WIND       PRES   REMARKS
DULUTH         MOCLDY     5  -7  57 N12       30.29R WCI -11
ELY            MOCLDY    -8 -15  71 NE3       30.36R
HIBBING        MOCLDY     1 -12  54 N9        30.34R WCI -14
EVELETH        MOCLDY     0  -9  65 NE8       30.34S WCI -15
DULUTH HARBOR  CLOUDY    12   1  62 NE20      30.37R WCI  -6
TWO HARBORS    FAIR       7  -6  56 N9        30.31S WCI  -7
SILVER BAY     PTCLDY     3  -9  55 N6        30.33R WCI  -8
GRAND MARAIS     N/A      1 -13  51 N14G26    30.41R WCI -17
G MARAIS ARPRT PTCLDY    -8 -17  65 N14       30.28S WCI -28
$$
MNZ029>031-032-039>041-046>048-054>057-064-010500-
   West Central Minnesota

CITY           SKY/WX    TMP DP  RH WIND       PRES   REMARKS
FERGUS FALLS   CLOUDY     9  -4  56 NE14G21   30.33R WCI  -8
WHEATON        CLOUDY     9   0  66 N17G25    30.30R WCI -10
MORRIS         CLOUDY    18   3  53 NE18      30.22R WCI   2
ALEXANDRIA     MOCLDY    13   1  59 NE17G24   30.23R WCI  -4
ELBOW LAKE     CLOUDY    12   2  64 NE13G18   30.26R WCI  -3
WADENA         CLOUDY     7  -2  66 NE17      30.27S WCI -12
GLENWOOD       CLOUDY    16   5  62 NE21G26   30.21R WCI  -2
APPLETON       CLOUDY    21   7  53 NE18G29   30.21R WCI   6
BENSON         CLOUDY    19   5  53 E9        30.21R WCI   9
ORTONVILLE     CLOUDY    16   7  67 N18       30.22R WCI  -1
MADISON        CLOUDY    25  12  58 NE18      30.20R WCI  11
WILLMAR        FAIR      23   7  50 NE14G22   30.19S WCI  11
$$
MNZ033>034-036-042>043-049>051-058-059-010500-
   Central Minnesota

CITY           SKY/WX    TMP DP  RH WIND       PRES   REMARKS
ST CLOUD       CLOUDY    19   2  47 NE13G23   30.23R WCI   6
SAUK CENTRE    CLOUDY    16   4  59 NE15      30.22R WCI   1
PAYNESVILLE    CLOUDY    18   4  55 N10G18    30.20S WCI   6
AITKIN         CLOUDY    10  -4  52 NE13      30.29R WCI  -5
PINE RIVER     CLOUDY     7  -2  66 NE10      30.33R WCI  -8
BRAINERD       CLOUDY    10  -3  55 NE15      30.28R WCI  -7
STAPLES        CLOUDY    10  -2  56 NE10      30.27S WCI  -3
LONG PRAIRIE   CLOUDY    14   3  62 N10G16    30.24R WCI   1
LITTLE FALLS   CLOUDY    16   0  48 NE8G20    30.26R WCI   5
LITCHFIELD     CLOUDY    25   9  50 NE15      30.18S WCI  12
BUFFALO        CLOUDY    22   8  54 NE15      30.21S WCI   9
MAPLE LAKE     CLOUDY    24  10  56 NE15G22   30.21S WCI  11
$$
MNZ037-044-045-052-053-010500-
   East Central Minnesota

CITY           SKY/WX    TMP DP  RH WIND       PRES   REMARKS
PRINCETON      CLOUDY    21   7  53 NE10G17   30.23S WCI  10
MORA           CLOUDY    16   1  53 NE8       30.27S WCI   5
CAMBRIDGE      CLOUDY    21   9  58 NE12G17   30.23R WCI   9
RUSH CITY      CLOUDY    18   7  62 NE10G21   30.26R WCI   6
MOOSE LAKE     CLOUDY    12  -2  52 NE10      30.28S WCI  -1
HINCKLEY       CLOUDY    18   7  62 NE10G20   30.27R WCI   6
CLOQUET        CLOUDY     7  -6  56 N6        30.30R WCI  -3
MCGREGOR       CLOUDY     9   0  66 N12       30.31R WCI  -6
$$
MNZ071>073-080-081-089-090-097-098-010500-
   Southwest Minnesota

CITY           SKY/WX    TMP DP  RH WIND       PRES   REMARKS
MONTEVIDEO     CLOUDY    21  12  68 E16       30.19R WCI   7
GRANITE FALLS  CLOUDY    24  12  61 N15G21    30.18S WCI  11
CANBY          CLOUDY    23  13  65 N12       30.17S WCI  12
MARSHALL       CLOUDY    23  10  58 NE17      30.14F WCI   9
REDWOOD FALLS  CLOUDY    25  18  74 NE8       30.15S WCI  16
OLIVIA         CLOUDY    23  14  68 NE14      30.16R WCI  11
PIPESTONE      LGT SNOW  21  21 100 E9        30.04S WCI  11
WINDOM         LGT SNOW  23  21  93 NE16G22   30.07S WCI  10
WORTHINGTON    CLOUDY    28  19  69 NE20      30.04F WCI  15
JACKSON        LGT SNOW  27  23  86 NE18      30.04F WCI  13
TRACY          CLOUDY    25  21  86 NE15      30.11S WCI  12
SLAYTON        CLOUDY    22  22  96 NE10G16   30.06F FOG     WCI  12
$$
MNZ065>067-074>077-082>085-091>093-010500-
   South Central Minnesota

CITY           SKY/WX    TMP DP  RH WIND       PRES   REMARKS
MANKATO        CLOUDY    25  18  74 NE16      30.12S WCI  12
NEW ULM        CLOUDY    25  18  74 NE8       30.13S WCI  16
ST JAMES       LGT SNOW  27  23  86 NE14G21   30.11S WCI  15
FAIRMONT       CLOUDY    25  21  86 NE16      30.06S WCI  12
GLENCOE        CLOUDY    27  16  64 NE6       30.16R WCI  20
FARIBAULT      CLOUDY    25  18  74 NE12G18   30.13F WCI  14
OWATONNA       CLOUDY    27  19  74 NE12      30.11S WCI  16
WASECA         CLOUDY    27  21  80 NE15      30.11F HAZE    WCI  15
ALBERT LEA     LGT SNOW  25  25 100 NE15      30.08S WCI  12
$$
MNZ078>079-086>088-094>096-010500-
   Southeast Minnesota

CITY           SKY/WX    TMP DP  RH WIND       PRES   REMARKS
ROCHESTER      LGT SNOW  24  21  88 E14       30.11S VSB 3/4 WCI  12
RED WING       CLOUDY    25  14  63 E13G20    30.18R WCI  13
STANTON        CLOUDY    27  18  70 NE17      30.15R WCI  14
DODGE CENTER   LGT SNOW  25  21  86 E15G21    30.10S WCI  12
WINONA         CLOUDY    30  21  69 NE6       30.17S WCI  24
AUSTIN         LGT SNOW  25  21  86 E13       30.08F WCI  13
PRESTON        LGT SNOW  24  22  93 NE10G16   30.10F WCI  13
$$
ABBREVIATIONS USED IN REMARKS
   TC - TEMPERATURES IN CELSIUS
  WCI - WIND CHILL INDEX
   HX - HEAT INDEX
  VSB - VISIBILITY
$$


USA.gov is the U.S. government's official web portal to all federal, state and local government web resources and services.